DELTA 1 DEB, 14563

Orbit data source: Space-Track

DELTA 1 DEB, 14563 is space debris in LEO originally from a launch on Thu, 14 Jul 1977 UTC launched from the Air Force Eastern Test Range (AFETR). Debris objects in space refer to the collection of defunct objects orbiting the Earth. Examples of debris include non-operational satellites, rocket bodies, and fragments generated from explosions, collisions, or faulty payload assembly.

Loading next visibility...
Identifier
14563, 1977-065FR
Orbit
LEO
Country
Flag of USUS
Related business
Manufacturer
Unknown
Mission
Spacecraft
Bus & Motor
Unknown
Mass
Unknown
Launch date (UTC)
1977-07-14 (49 years ago)
Launch vehicle
Unknown
Launch site
Air Force Eastern Test Range (AFETR)
Object type
Payload
Rocket body
Debris
Shape & HBR
Unknown shape, 0.1 m
Radar Cross Section
Small (<0.1 m²)

Expand to show TLE details & history
Last TLE update: 6 hours ago

TLE from 6 hours ago
0 DELTA 1 DEB
1 14563U 77065FR  26133.21966467  .00001377  00000-0  17596-3 0  9999
2 14563  29.1735 108.2412 0427019 231.7354 124.4067 14.28589839782518
Epoch: 2026-05-13T05:16Z
TLE epoch observation values (Epoch: 2026-05-13T05:16:19.027Z)
Latitude
-0.00002°
Longitude
158.17905°
Altitude
976.487 km
Speed
7.272 km/s
True Right ascension
07h 12m 57s
True Declination
0° 00' 00"
Sunlit
Object was in daylight at epoch
Visualization orbit readout
Latitude
Unknown
Longitude
Unknown
Altitude
Unknown
Speed
Unknown
Apparent Right ascension
Unknown
Apparent Declination
Unknown
Sunlit
N/A
Visualization observer readout
Local Sidereal Time
19:11:28
Azimuth
Unknown
Elevation
Unknown
Doppler factor
Unknown
Orbital elements
Apogee altitude
1,106.954 km
Perigee altitude
493.878 km
Semi-major axis
7,178.553 km
Eccentricity
0.0427
Inclination
29.1735°
RAAN
108.2412°
Arg. of periapsis
231.7354°
True anomaly
128.32251°
Mean anomaly
124.4067°
Eccentric anomaly
126.37658°
Mean motion
3.56852 °/min
Orbital period
100.88 mins
BSTAR
0.00017596
Loading maneuver chart data...
Computing Atmospheric mass density...

Documentation

Showing up to 5 results
|